Location: Grieser Field
(39.7333°N, 81.7975°W)
Time: 21:55:43
(UTC-04:00)

Meteor 2-1 Rocket - Visible Passes

Search period start: 25 September 2016 00:00
Search period end: 05 October 2016 00:00
Orbit: 829 x 908 km, 81.3° (Epoch: 25 September)

Date Brightness Start Highest point End Pass type
(mag) Time Alt. Az. Time Alt. Az. Time Alt. Az.
25 Sep 6.0 21:45:34 20° NNE 21:45:34 20° NNE 21:47:20 10° NNE visible
25 Sep 6.7 23:27:56 17° NW 23:27:56 17° NW 23:29:55 10° NNW visible
26 Sep 5.8 21:38:32 23° NNE 21:38:32 23° NNE 21:40:42 10° NNE visible
26 Sep 6.6 23:20:53 19° NW 23:20:53 19° NW 23:23:14 10° NNW visible
27 Sep 5.6 21:31:22 27° NE 21:31:22 27° NE 21:34:04 10° NNE visible
27 Sep 6.5 23:13:44 20° NW 23:13:44 20° NW 23:16:34 10° NNW visible
28 Sep 5.2 21:24:05 33° NE 21:24:05 33° NE 21:27:27 10° NNE visible
28 Sep 6.5 23:06:25 21° NW 23:06:25 21° NW 23:09:53 10° NNW visible
29 Sep 4.8 21:16:32 42° NE 21:16:32 42° NE 21:20:49 10° NNE visible
29 Sep 6.4 22:58:51 22° WNW 22:58:51 22° WNW 23:03:13 10° NNW visible
30 Sep 4.3 21:08:30 52° E 21:08:30 52° E 21:14:11 10° NNE visible
30 Sep 6.4 22:50:46 20° W 22:52:09 21° WNW 22:56:32 10° NNW visible
01 Oct 4.3 20:56:16 10° S 21:01:51 53° E 21:07:34 10° NNE visible
01 Oct 6.5 22:41:14 10° WSW 22:45:31 21° WNW 22:49:51 10° NNW visible
02 Oct 4.3 20:49:35 10° S 20:55:11 54° E 21:00:56 10° NNE visible
02 Oct 6.5 22:34:39 10° WSW 22:38:53 20° WNW 22:43:11 10° NNW visible
03 Oct 4.3 20:42:55 10° S 20:48:33 56° E 20:54:18 10° NNE visible
03 Oct 6.6 22:28:03 10° WSW 22:32:15 20° WNW 22:36:30 10° NNW visible
04 Oct 4.3 20:36:14 10° S 20:41:54 57° E 20:47:40 10° NNE visible
04 Oct 6.6 22:21:28 10° WSW 22:25:37 20° WNW 22:29:49 10° NNW visible
